Weather History for Hooper Bay, AK

Change the Weather History Date:

Wednesday, November 13, 2013

  Actual Average Record
Temperature  
Mean Temperature 44 °F -  
Max Temperature 48 °F 26 °F 48 °F (2013)
Min Temperature 39 °F 19 °F 10 °F (2002)
Degree Days  
Heating Degree Days 22    
Moisture  
Dew Point 37 °F    
Average Humidity 75    
Maximum Humidity 81    
Minimum Humidity 70    
Precipitation  
Precipitation 0.00 in - - ()
Sea Level Pressure  
Sea Level Pressure 29.93 in    
Wind  
Wind Speed 25 mph (WSW)    
Max Wind Speed 36 mph    
Max Gust Speed 45 mph    
Visibility 3 miles    
Events      
Averages and records for this station are not official NWS values.
T = Trace of Precipitation, MM = Missing Value Source: NWS Daily Summary

Daily Weather History Graph

Daily Weather History Graph

Search for Another Location

Airport:

Trip Planner

Search our weather history database for the weather conditions in past years. The results will help you decide how hot, cold, wet, or windy it might be!

Date:

Astronomy

Nov. 13, 2013 Rise Set
Actual Time 10:08 AM AKST 5:28 PM AKST
Civil Twilight 9:16 AM AKST 6:20 PM AKST
Nautical Twilight 8:22 AM AKST 7:14 PM AKST
Astronomical Twilight 7:30 AM AKST 8:05 PM AKST
Moon 4:18 PM AKST (11/13) 5:11 AM AKST (11/13)
Length of Visible Light 9h 03m
Length of Day
7h 19m
Waxing Gibbous, 86% of the Moon is Illuminated
Nov 13
Waxing Gibbous
Nov 17
Full
Nov 25
Last Quarter
Dec 2
New
Dec 9
First Quarter

Hourly Weather History & Observations

Time (AKST) Temp. Windchill Dew Point Humidity Pressure Visibility Wind Dir Wind Speed Gust Speed Precip Events Conditions
12:16 AM 46.4 °F 38.7 °F 39.2 °F 76% 29.87 in 1.0 mi WSW 20.7 mph - N/A   Overcast
12:36 AM 46.4 °F 38.5 °F 37.4 °F 71% 29.87 in 0.8 mi WSW 21.9 mph 27.6 mph N/A   Overcast
12:56 AM 46.4 °F 38.5 °F 39.2 °F 76% 29.87 in 1.0 mi WSW 21.9 mph - N/A   Overcast
1:16 AM 46.4 °F 38.7 °F 37.4 °F 71% 29.88 in 1.2 mi WSW 20.7 mph - N/A   Overcast
1:36 AM 46.4 °F 38.7 °F 37.4 °F 71% 29.88 in 1.0 mi WSW 20.7 mph 24.2 mph N/A   Overcast
1:56 AM 46.4 °F 38.5 °F 37.4 °F 71% 29.89 in 0.5 mi WSW 21.9 mph - N/A   Overcast
2:16 AM 46.4 °F 38.5 °F 37.4 °F 71% 29.89 in 0.5 mi WSW 21.9 mph - N/A   Overcast
2:36 AM 46.4 °F 38.1 °F 37.4 °F 71% 29.89 in 0.8 mi WSW 24.2 mph - N/A   Overcast
2:56 AM 46.4 °F 37.9 °F 37.4 °F 71% 29.90 in 1.8 mi WSW 25.3 mph - N/A   Overcast
3:16 AM 46.4 °F 38.1 °F 37.4 °F 71% 29.90 in 1.8 mi WSW 24.2 mph - N/A   Overcast
3:36 AM 46.4 °F 38.3 °F 37.4 °F 71% 29.91 in 1.5 mi WSW 23.0 mph - N/A   Overcast
3:56 AM 46.4 °F 38.5 °F 37.4 °F 71% 29.91 in 2.5 mi WSW 21.9 mph - N/A   Overcast
4:16 AM 46.4 °F 38.7 °F 37.4 °F 71% 29.91 in 3.0 mi WSW 20.7 mph 26.5 mph N/A   Overcast
4:36 AM 46.4 °F 38.3 °F 37.4 °F 71% 29.91 in 1.2 mi WSW 23.0 mph - N/A   Overcast
4:56 AM 46.4 °F 38.7 °F 37.4 °F 71% 29.90 in 1.5 mi WSW 20.7 mph - N/A   Overcast
5:16 AM 46.4 °F 38.1 °F 37.4 °F 71% 29.90 in 1.8 mi SW 24.2 mph 29.9 mph N/A   Overcast
5:36 AM 46.4 °F 38.3 °F 39.2 °F 76% 29.90 in 1.8 mi SW 23.0 mph - N/A   Overcast
5:56 AM 46.4 °F 38.1 °F 39.2 °F 76% 29.90 in 1.0 mi SW 24.2 mph - N/A   Overcast
6:16 AM 46.4 °F 38.1 °F 39.2 °F 76% 29.89 in 1.2 mi SW 24.2 mph - N/A   Overcast
6:36 AM 46.4 °F 37.7 °F 37.4 °F 71% 29.88 in 1.0 mi SW 26.5 mph 32.2 mph N/A   Overcast
6:56 AM 46.4 °F 38.1 °F 39.2 °F 76% 29.88 in 1.0 mi SW 24.2 mph 33.4 mph N/A   Overcast
7:16 AM 46.4 °F 37.5 °F 39.2 °F 76% 29.86 in 0.8 mi SW 27.6 mph 32.2 mph N/A   Overcast
7:36 AM 46.4 °F 36.9 °F 39.2 °F 76% 29.87 in 1.0 mi SW 32.2 mph 36.8 mph N/A   Overcast
7:56 AM 46.4 °F 37.4 °F 39.2 °F 76% 29.89 in 1.2 mi SW 28.8 mph 39.1 mph N/A   Overcast
8:16 AM 46.4 °F 37.2 °F 39.2 °F 76% 29.87 in 1.5 mi SW 29.9 mph 38.0 mph N/A   Overcast
8:36 AM 46.4 °F 37.5 °F 39.2 °F 76% 29.86 in 1.5 mi SW 27.6 mph 35.7 mph N/A   Overcast
8:56 AM 46.4 °F 37.2 °F 39.2 °F 76% 29.86 in 1.5 mi SW 29.9 mph 38.0 mph N/A   Overcast
9:16 AM 48.2 °F - 39.2 °F 71% 29.86 in 2.0 mi SW 32.2 mph 38.0 mph N/A   Overcast
9:36 AM 48.2 °F - 39.2 °F 71% 29.86 in 1.5 mi SW 32.2 mph 38.0 mph N/A   Overcast
9:56 AM 48.2 °F - 39.2 °F 71% 29.86 in 3.0 mi SW 31.1 mph 38.0 mph N/A   Overcast
10:16 AM 48.2 °F - 39.2 °F 71% 29.86 in 3.0 mi SW 29.9 mph 36.8 mph N/A   Overcast
10:36 AM 48.2 °F - 39.2 °F 71% 29.83 in 4.0 mi SW 28.8 mph 34.5 mph N/A   Overcast
10:56 AM 48.2 °F - 39.2 °F 71% 29.86 in 4.0 mi SW 31.1 mph 36.8 mph N/A   Overcast
11:16 AM 48.2 °F - 39.2 °F 71% 29.88 in 3.0 mi WSW 33.4 mph 44.9 mph N/A   Overcast
11:36 AM 48.2 °F - 39.2 °F 71% 29.89 in 3.0 mi WSW 29.9 mph 41.4 mph N/A   Overcast
11:56 AM 46.4 °F 37.2 °F 39.2 °F 76% 29.90 in 3.0 mi WSW 29.9 mph 41.4 mph N/A   Overcast
12:16 PM 46.4 °F 37.0 °F 39.2 °F 76% 29.90 in 3.0 mi WSW 31.1 mph 35.7 mph N/A   Overcast
12:36 PM 46.4 °F 37.5 °F 39.2 °F 76% 29.91 in 3.0 mi WSW 27.6 mph 35.7 mph N/A   Overcast
12:56 PM 46.4 °F 37.4 °F 39.2 °F 76% 29.91 in 3.0 mi WSW 28.8 mph 39.1 mph N/A   Overcast
1:16 PM 46.4 °F 37.5 °F 39.2 °F 76% 29.92 in 3.0 mi WSW 27.6 mph 34.5 mph N/A   Overcast
1:36 PM 46.4 °F 37.4 °F 37.4 °F 71% 29.92 in 3.0 mi WSW 28.8 mph 35.7 mph N/A   Overcast
1:56 PM 46.4 °F 36.7 °F 37.4 °F 71% 29.92 in 3.0 mi WSW 33.4 mph 41.4 mph N/A   Overcast
2:16 PM 46.4 °F 37.2 °F 37.4 °F 71% 29.93 in 4.0 mi WSW 29.9 mph 40.3 mph N/A   Overcast
2:36 PM 44.6 °F 34.7 °F 37.4 °F 76% 29.93 in 5.0 mi WSW 29.9 mph 39.1 mph N/A   Overcast
2:56 PM 42.8 °F 31.8 °F 35.6 °F 76% 29.92 in 5.0 mi WSW 33.4 mph 39.1 mph N/A   Overcast
3:16 PM 42.8 °F 33.3 °F 35.6 °F 76% 29.94 in 5.0 mi WSW 24.2 mph 39.1 mph N/A   Overcast
3:36 PM 42.8 °F 31.4 °F 33.8 °F 70% 29.94 in 6.0 mi WSW 35.7 mph 42.6 mph N/A   Overcast
3:56 PM 42.8 °F 32.1 °F 33.8 °F 70% 29.96 in 6.0 mi WSW 31.1 mph 39.1 mph N/A   Overcast
4:16 PM 41.0 °F 29.8 °F 33.8 °F 76% 29.96 in 5.0 mi WSW 29.9 mph 39.1 mph N/A   Overcast
4:36 PM 41.0 °F 30.2 °F 33.8 °F 76% 29.97 in 5.0 mi West 27.6 mph 40.3 mph N/A   Overcast
4:56 PM 41.0 °F 29.8 °F 33.8 °F 76% 29.99 in 5.0 mi WSW 29.9 mph 35.7 mph N/A   Overcast
5:16 PM 41.0 °F 29.7 °F 33.8 °F 76% 29.99 in 5.0 mi West 31.1 mph 40.3 mph N/A   Overcast
5:36 PM 39.2 °F 27.6 °F 33.8 °F 81% 30.01 in 5.0 mi West 28.8 mph - N/A   Overcast
5:56 PM 39.2 °F 28.0 °F 33.8 °F 81% 30.00 in 5.0 mi WSW 26.5 mph 36.8 mph N/A   Overcast
6:16 PM 39.2 °F 27.6 °F 33.8 °F 81% 30.00 in 5.0 mi WSW 28.8 mph 35.7 mph N/A   Overcast
6:36 PM 39.2 °F 28.0 °F 33.8 °F 81% 30.00 in 5.0 mi WSW 26.5 mph 34.5 mph N/A   Overcast
6:56 PM 39.2 °F 28.0 °F 33.8 °F 81% 30.00 in 4.0 mi WSW 26.5 mph 32.2 mph N/A   Overcast
7:16 PM 39.2 °F 28.3 °F 33.8 °F 81% 30.00 in 4.0 mi WSW 25.3 mph 32.2 mph N/A   Overcast
7:36 PM 39.2 °F 28.3 °F 33.8 °F 81% 30.01 in 4.0 mi WSW 25.3 mph 34.5 mph N/A   Overcast
7:56 PM 39.2 °F 27.8 °F 33.8 °F 81% 30.00 in 4.0 mi WSW 27.6 mph 33.4 mph N/A   Overcast
8:16 PM 39.2 °F 28.0 °F 33.8 °F 81% 30.00 in 5.0 mi WSW 26.5 mph 33.4 mph N/A   Overcast
8:36 PM 39.2 °F 28.5 °F 33.8 °F 81% 30.00 in 5.0 mi WSW 24.2 mph 33.4 mph N/A   Overcast
8:56 PM 39.2 °F 28.5 °F 33.8 °F 81% 30.00 in 4.0 mi WSW 24.2 mph 34.5 mph N/A   Overcast
9:16 PM 39.2 °F 28.0 °F 33.8 °F 81% 30.00 in 5.0 mi WSW 26.5 mph 34.5 mph N/A   Overcast
9:36 PM 39.2 °F 28.0 °F 33.8 °F 81% 30.01 in 4.0 mi WSW 26.5 mph 33.4 mph N/A   Overcast
9:56 PM 39.2 °F 28.0 °F 33.8 °F 81% 30.01 in 5.0 mi WSW 26.5 mph 38.0 mph N/A   Overcast
10:16 PM 39.2 °F 28.3 °F 33.8 °F 81% 30.02 in 4.0 mi WSW 25.3 mph 32.2 mph N/A   Overcast
10:36 PM 39.2 °F 27.8 °F 33.8 °F 81% 30.02 in 4.0 mi WSW 27.6 mph 32.2 mph N/A   Overcast
10:56 PM 39.2 °F 27.4 °F 33.8 °F 81% 30.02 in 4.0 mi West 29.9 mph 36.8 mph N/A   Overcast
11:16 PM 39.2 °F 27.4 °F 33.8 °F 81% 30.01 in 4.0 mi West 29.9 mph 36.8 mph N/A   Overcast
11:36 PM 39.2 °F 27.4 °F 33.8 °F 81% 30.01 in 5.0 mi WSW 29.9 mph 38.0 mph N/A   Overcast
11:56 PM 39.2 °F 27.6 °F 32.0 °F 75% 30.02 in 5.0 mi West 28.8 mph 41.4 mph N/A   Overcast